| time (UTC) | temp C | wind direction | speed KPH | gust KPH | rain 1hr cm | rain 24hr cm | rain mn cm | humidity % | barometer mb |
| 20260508193008 | 15 | 99 | 6.4 | 20.9 | 0.00 | 0.00 | 0.00 | 85 | 1012.5 |
| 20260508191508 | 15 | 98 | 6.4 | 19.3 | 0.00 | 0.00 | 0.00 | 85 | 1012.4 |
| 20260508190010 | 15 | 115 | 3.2 | 16.1 | 0.00 | 0.00 | 0.00 | 87 | 1012.4 |
| 20260508184506 | 15 | 103 | 4.8 | 16.1 | 0.00 | 0.00 | 0.00 | 90 | 1012.5 |
| 20260508183005 | 13 | 103 | 0.0 | 3.2 | 0.00 | 0.00 | 0.00 | 91 | 1012.5 |
| 20260508181502 | 13 | 103 | 0.0 | 1.6 | 0.00 | 0.00 | 0.00 | 91 | 1012.1 |
| 20260508180103 | 13 | 103 | 0.0 | 3.2 | 0.00 | 0.00 | 0.00 | 90 | 1011.7 |
| 20260508174555 | 14 | 103 | 1.6 | 3.2 | 0.00 | 0.00 | 0.00 | 88 | 1011.4 |
| 20260508173100 | 15 | 103 | 1.6 | 4.8 | 0.00 | 0.00 | 0.00 | 86 | 1011.3 |
| 20260508171553 | 15 | 103 | 3.2 | 11.3 | 0.00 | 0.00 | 0.00 | 86 | 1011.0 |
| 20260508170048 | 15 | 103 | 1.6 | 6.4 | 0.00 | 0.00 | 0.00 | 86 | 1010.9 |
| 20260508164545 | 15 | 103 | 6.4 | 16.1 | 0.00 | 0.00 | 0.00 | 88 | 1010.7 |
| 20260508163047 | 15 | 118 | 8.0 | 22.5 | 0.00 | 0.00 | 0.00 | 88 | 1010.7 |
| 20260508161541 | 16 | 102 | 6.4 | 17.7 | 0.00 | 0.00 | 0.00 | 88 | 1010.4 |
| 20260508160041 | 16 | 82 | 8.0 | 19.3 | 0.00 | 0.00 | 0.00 | 88 | 1010.2 |
| 20260508154536 | 16 | 109 | 8.0 | 17.7 | 0.00 | 0.00 | 0.00 | 88 | 1010.0 |
| 20260508153033 | 16 | 123 | 0.0 | 3.2 | 0.00 | 0.00 | 0.00 | 87 | 1010.3 |
| 20260508150037 | 17 | 110 | 4.8 | 12.9 | 0.00 | 0.00 | 0.00 | 86 | 1009.2 |
| 20260508144539 | 17 | 111 | 6.4 | 14.5 | 0.00 | 0.00 | 0.00 | 87 | 1008.9 |
| 20260508143036 | 17 | 109 | 6.4 | 17.7 | 0.00 | 0.00 | 0.00 | 89 | 1008.5 |
| 20260508141528 | 17 | 109 | 4.8 | 12.9 | 0.00 | 0.00 | 0.00 | 91 | 1008.3 |
| 20260508140034 | 16 | 109 | 6.4 | 16.1 | 0.00 | 0.00 | 0.00 | 92 | 1008.6 |
| 20260508134528 | 16 | 110 | 6.4 | 17.7 | 0.00 | 0.00 | 0.00 | 92 | 1008.6 |
| 20260508133022 | 16 | 113 | 4.8 | 19.3 | 0.00 | 0.00 | 0.00 | 92 | 1008.6 |
| 20260508131521 | 16 | 115 | 4.8 | 12.9 | 0.00 | 0.00 | 0.00 | 92 | 1008.7 |
| 20260508130025 | 16 | 115 | 1.6 | 9.7 | 0.00 | 0.00 | 0.00 | 92 | 1008.8 |
| 20260508124518 | 16 | 115 | 0.0 | 1.6 | 0.00 | 0.00 | 0.00 | 92 | 1009.1 |
| 20260508123021 | 15 | 115 | 0.0 | 4.8 | 0.00 | 0.00 | 0.00 | 92 | 1009.3 |
| 20260508121523 | 16 | 115 | 0.0 | 4.8 | 0.00 | 0.00 | 0.00 | 92 | 1009.2 |
| 20260508120021 | 16 | 115 | 1.6 | 6.4 | 0.00 | 0.00 | 0.00 | 92 | 1009.1 |
| 20260508114528 | 15 | 115 | 1.6 | 6.4 | 0.00 | 0.00 | 0.00 | 92 | 1009.1 |
| 20260508113015 | 14 | 115 | 3.2 | 12.9 | 0.00 | 0.00 | 0.00 | 92 | 1009.3 |
| 20260508111514 | 13 | 115 | 6.4 | 16.1 | 0.00 | 0.00 | 0.00 | 87 | 1009.5 |
| 20260508110012 | 16 | 120 | 6.4 | 19.3 | 0.00 | 0.00 | 0.00 | 80 | 1010.0 |
| 20260508104512 | 18 | 108 | 4.8 | 14.5 | 0.00 | 0.00 | 0.00 | 74 | 1009.2 |
| 20260508103012 | 21 | 231 | 0.0 | 0.0 | 0.00 | 0.00 | 0.00 | 70 | 1009.3 |
| 20260508101510 | 21 | 228 | 0.0 | 0.0 | 0.00 | 0.00 | 0.00 | 74 | 1009.3 |
| 20260508100009 | 21 | 254 | 0.0 | 0.0 | 0.00 | 0.00 | 0.00 | 70 | 1009.6 |
| 20260508094505 | 21 | 253 | 0.0 | 0.0 | 0.00 | 0.00 | 0.00 | 73 | 1010.1 |
| 20260508093002 | 20 | 253 | 0.0 | 0.0 | 0.00 | 0.00 | 0.00 | 75 | 1010.4 |
| 20260508091502 | 20 | 253 | 0.0 | 0.0 | 0.00 | 0.00 | 0.00 | 75 | 1010.8 |
| 20260508090000 | 20 | 252 | 0.0 | 0.0 | 0.00 | 0.00 | 0.00 | 76 | 1011.0 |
| 20260508084559 | 20 | 80 | 0.0 | 0.0 | 0.00 | 0.00 | 0.00 | 78 | 1011.3 |
| 20260508083058 | 20 | 30 | 0.0 | 0.0 | 0.00 | 0.00 | 0.00 | 79 | 1011.5 |
| 20260508081606 | 18 | 30 | 0.0 | 0.0 | 0.00 | 0.00 | 0.00 | 80 | 1011.9 |
| 20260508080059 | 18 | 30 | 0.0 | 0.0 | 0.00 | 0.00 | 0.00 | 79 | 1012.0 |
| 20260508074559 | 20 | 33 | 0.0 | 0.0 | 0.00 | 0.00 | 0.00 | 78 | 1012.3 |
| 20260508073103 | 18 | 34 | 0.0 | 0.0 | 0.00 | 0.00 | 0.00 | 79 | 1012.4 |
| 20260508071552 | 18 | 34 | 0.0 | 0.0 | 0.00 | 0.00 | 0.00 | 80 | 1012.5 |
| 20260508070051 | 17 | 33 | 0.0 | 0.0 | 0.00 | 0.00 | 0.00 | 82 | 1012.4 |
| 20260508064602 | 17 | 33 | 0.0 | 0.0 | 0.00 | 0.00 | 0.00 | 80 | 1012.3 |
| 20260508063047 | 18 | 34 | 0.0 | 0.0 | 0.00 | 0.00 | 0.00 | 79 | 1012.2 |
| 20260508061552 | 17 | 34 | 0.0 | 0.0 | 0.00 | 0.00 | 0.00 | 81 | 1012.1 |
| 20260508060047 | 17 | 34 | 0.0 | 0.0 | 0.00 | 0.00 | 0.00 | 83 | 1012.0 |
| 20260508054603 | 17 | 34 | 0.0 | 0.0 | 0.00 | 0.00 | 0.00 | 84 | 1011.9 |
| 20260508053035 | 16 | 34 | 0.0 | 0.0 | 0.00 | 0.00 | 0.00 | 86 | 1011.8 |
| 20260508051533 | 15 | 34 | 0.0 | 0.0 | 0.00 | 0.00 | 0.00 | 88 | 1011.8 |
| 20260508050037 | 15 | 34 | 0.0 | 0.0 | 0.00 | 0.00 | 0.00 | 91 | 1011.6 |
| 20260508044528 | 13 | 34 | 0.0 | 0.0 | 0.00 | 0.00 | 0.00 | 91 | 1011.7 |
| 20260508043039 | 13 | 34 | 0.0 | 0.0 | 0.00 | 0.00 | 0.00 | 91 | 1011.6 |
| 20260508041532 | 13 | 34 | 0.0 | 0.0 | 0.00 | 0.00 | 0.00 | 89 | 1011.5 |
| 20260508040025 | 13 | 34 | 0.0 | 0.0 | 0.00 | 0.00 | 0.00 | 89 | 1011.2 |
| 20260508034528 | 13 | 34 | 0.0 | 0.0 | 0.00 | 0.00 | 0.00 | 89 | 1011.0 |
| 20260508033022 | 13 | 34 | 0.0 | 0.0 | 0.00 | 0.00 | 0.00 | 89 | 1010.9 |
| 20260508031521 | 13 | 34 | 0.0 | 12.9 | 0.00 | 0.00 | 0.00 | 89 | 1010.6 |
| 20260508030020 | 13 | 96 | 3.2 | 17.7 | 0.00 | 0.00 | 0.00 | 89 | 1010.6 |
| 20260508024522 | 13 | 101 | 4.8 | 17.7 | 0.00 | 0.00 | 0.00 | 89 | 1010.4 |
| 20260508023018 | 13 | 81 | 3.2 | 12.9 | 0.00 | 0.00 | 0.00 | 89 | 1010.3 |
| 20260508021517 | 13 | 80 | 0.0 | 8.0 | 0.00 | 0.00 | 0.00 | 89 | 1010.4 |
| 20260508020017 | 14 | 80 | 1.6 | 16.1 | 0.00 | 0.00 | 0.00 | 89 | 1009.9 |
| 20260508014516 | 14 | 95 | 3.2 | 14.5 | 0.00 | 0.00 | 0.00 | 90 | 1009.7 |
| 20260508013015 | 14 | 87 | 3.2 | 16.1 | 0.00 | 0.00 | 0.00 | 90 | 1009.7 |
| 20260508011514 | 14 | 84 | 1.6 | 16.1 | 0.00 | 0.00 | 0.00 | 90 | 1009.7 |
| 20260508010023 | 13 | 75 | 0.0 | 8.0 | 0.00 | 0.00 | 0.00 | 89 | 1009.6 |
| 20260508004522 | 13 | 72 | 4.8 | 16.1 | 0.00 | 0.00 | 0.00 | 89 | 1009.7 |
| 20260508003011 | 14 | 42 | 1.6 | 8.0 | 0.00 | 0.00 | 0.00 | 89 | 1009.8 |
| 20260508001510 | 14 | 322 | 0.0 | 4.8 | 0.00 | 0.00 | 0.00 | 88 | 1010.0 |
| 20260508000009 | 14 | 322 | 3.2 | 14.5 | 0.00 | 0.00 | 0.00 | 88 | 1010.0 |
| 20260507234513 | 14 | 95 | 0.0 | 6.4 | 0.00 | 0.00 | 0.00 | 88 | 1009.9 |
| 20260507233013 | 14 | 95 | 1.6 | 9.7 | 0.00 | 0.00 | 0.00 | 88 | 1009.8 |
| 20260507231506 | 14 | 96 | 1.6 | 12.9 | 0.00 | 0.00 | 0.00 | 88 | 1009.8 |
| 20260507230104 | 15 | 91 | 3.2 | 14.5 | 0.00 | 0.00 | 0.00 | 88 | 1009.9 |
| 20260507224501 | 15 | 89 | 1.6 | 12.9 | 0.00 | 0.00 | 0.00 | 88 | 1010.3 |
| 20260507223104 | 15 | 88 | 1.6 | 14.5 | 0.00 | 0.00 | 0.00 | 88 | 1010.2 |
| 20260507221603 | 15 | 79 | 0.0 | 14.5 | 0.00 | 0.00 | 0.00 | 88 | 1010.6 |
| 20260507220056 | 15 | 84 | 3.2 | 16.1 | 0.00 | 0.00 | 0.00 | 88 | 1010.7 |
| 20260507214555 | 15 | 139 | 0.0 | 12.9 | 0.00 | 0.00 | 0.00 | 87 | 1011.1 |
| 20260507213053 | 15 | 100 | 6.4 | 24.1 | 0.00 | 0.00 | 0.00 | 87 | 1010.8 |
| 20260507211559 | 15 | 81 | 11.3 | 25.7 | 0.00 | 0.00 | 0.00 | 87 | 1010.9 |
| 20260507210150 | 15 | 110 | 11.3 | 25.7 | 0.00 | 0.00 | 0.00 | 87 | 1011.0 |
| 20260507204548 | 15 | 102 | 9.7 | 29.0 | 0.00 | 0.00 | 0.00 | 87 | 1011.2 |
| 20260507203051 | 15 | 101 | 12.9 | 29.0 | 0.00 | 0.00 | 0.00 | 87 | 1011.4 |
| 20260507201547 | 15 | 88 | 8.0 | 25.7 | 0.00 | 0.00 | 0.00 | 87 | 1011.4 |
| 20260507200047 | 15 | 108 | 11.3 | 25.7 | 0.00 | 0.00 | 0.00 | 87 | 1011.4 |
| 20260507194545 | 15 | 107 | 11.3 | 24.1 | 0.00 | 0.00 | 0.00 | 87 | 1011.4 |